Theta_e
317 320 319 326 330 333 340 341 344 346 343 343 344 344 345 345 347 347 342 339 333 333 338 337 338 336 330 329 327 326 325 326 333 338 341 340 335 330 329 329 328 327 323 322 323 324 323 321 319
319 318 322 335 334 338 336 337 345 344 339 344 344 345 344 343 344 341 341 337 332 329 334 337 338 338 333 331 329 327 324 321 325 331 332 330 328 325 323 325 326 327 329 327 323 321 320 319 319
318 318 327 324 329 334 334 335 341 342 339 341 344 346 344 344 342 340 340 339 333 327 327 330 336 338 335 332 330 328 321 320 320 322 325 325 324 323 327 328 328 327 327 329 324 322 323 325 322
317 322 327 327 329 328 329 333 340 342 341 340 341 346 344 344 341 341 340 342 338 327 325 326 330 338 337 333 331 327 320 321 321 321 323 324 326 328 328 328 328 326 324 328 326 328 331 332 330
319 327 323 327 327 326 326 328 337 343 341 339 341 347 345 342 343 342 342 342 335 326 325 325 326 336 337 334 331 326 321 323 324 324 324 328 329 328 329 331 333 331 325 327 330 333 335 337 336
324 326 323 323 325 326 325 328 329 338 340 339 343 345 344 344 345 344 342 339 328 325 325 324 325 335 337 335 332 327 322 324 324 327 328 330 331 329 332 333 334 332 327 327 332 335 336 338 339
321 321 325 323 323 324 322 325 326 327 332 338 344 345 345 345 345 344 338 330 327 325 323 325 328 335 338 336 332 328 322 324 327 328 329 330 333 331 332 335 333 333 330 327 333 335 337 338 341
320 319 321 321 323 325 325 323 324 325 327 333 342 345 345 345 345 343 334 329 327 324 324 328 330 336 338 336 333 329 322 326 328 328 330 330 332 333 334 334 333 335 335 328 331 336 336 337 341
319 315 317 320 321 324 322 321 324 331 330 342 346 346 343 345 344 340 332 329 326 324 325 330 333 336 337 337 335 331 323 328 330 329 331 333 333 334 334 335 335 338 338 336 333 335 337 340 341
315 313 316 316 318 322 321 320 322 342 346 347 346 346 343 344 343 341 335 329 325 323 327 331 334 337 338 337 336 333 324 326 331 332 334 334 334 334 334 335 335 337 338 338 338 338 338 338 339
316 313 314 319 321 322 321 323 320 347 348 347 345 345 344 344 343 341 338 332 329 323 323 325 330 335 337 337 336 334 328 323 332 333 334 335 334 333 333 334 335 336 337 338 338 337 337 337 338
320 318 319 320 320 323 322 321 321 344 341 347 345 345 342 343 343 342 340 333 330 331 327 323 323 330 335 336 335 335 331 322 330 333 333 335 334 333 332 332 334 335 335 337 337 336 336 336 336
319 321 321 320 320 322 322 321 320 320 336 347 346 344 342 341 342 342 340 337 333 334 333 329 323 323 327 332 334 334 332 324 324 332 332 333 335 333 333 332 332 333 334 335 335 334 334 335 336
320 321 322 321 321 319 320 320 323 339 346 345 344 343 342 341 342 342 341 341 338 336 337 336 328 323 322 322 324 330 330 325 322 329 333 331 332 334 333 333 333 333 332 332 332 331 332 333 335
317 316 315 314 316 315 319 318 323 344 344 342 344 344 342 342 343 343 342 342 342 340 339 339 332 326 323 322 321 322 324 324 322 322 331 332 331 331 333 334 335 335 338 339 336 334 331 331 334
314 314 315 315 312 315 318 315 326 345 343 343 342 342 343 343 344 344 343 343 342 342 341 340 336 328 328 325 322 322 322 322 322 321 324 331 332 331 332 334 336 337 338 338 340 337 338 334 333
311 315 314 315 312 312 315 317 333 344 343 343 343 342 341 341 340 341 343 344 343 343 342 342 339 331 338 331 323 324 323 321 321 321 321 325 332 332 332 332 334 338 337 338 338 338 337 338 338
315 315 316 316 316 314 323 329 339 342 342 341 342 343 344 343 343 342 341 342 342 342 343 344 341 337 337 338 331 331 334 335 333 325 322 323 326 331 331 332 333 338 339 339 335 336 337 338 336
314 315 315 314 314 316 323 340 339 338 338 338 340 342 344 344 344 344 343 342 342 342 342 342 342 340 339 338 338 336 337 337 337 337 334 330 328 331 335 335 334 334 337 339 337 338 338 337 338
315 317 317 315 317 319 336 336 334 333 334 336 337 340 343 341 343 344 345 344 343 342 342 341 341 340 339 338 338 337 337 337 338 338 338 337 336 337 339 339 339 339 338 338 339 337 338 337 336
318 318 315 323 326 326 335 333 335 333 334 336 337 339 340 340 341 342 342 344 344 343 342 340 339 339 339 339 338 337 338 340 340 340 339 338 338 338 338 337 338 338 337 337 337 338 337 336 334
318 312 314 315 322 327 322 336 331 333 332 332 333 338 337 336 336 336 338 340 342 343 342 342 340 339 339 338 338 341 341 341 341 340 339 339 339 338 338 338 338 338 338 337 338 337 337 335 332
314 312 312 313 309 310 311 328 328 332 336 332 330 336 335 334 332 330 329 331 337 340 342 343 343 342 340 339 339 339 340 341 341 340 339 338 339 339 339 338 338 337 336 336 336 336 335 336 333
310 311 310 307 308 316 313 310 309 331 337 335 329 333 333 331 329 326 329 331 333 336 338 340 341 341 341 341 341 341 341 341 340 339 339 338 337 336 334 334 333 332 331 330 332 332 332 333 333
310 310 310 310 308 310 308 310 311 315 327 330 328 328 332 329 326 326 325 323 325 326 328 330 332 333 335 336 336 336 334 333 334 334 331 328 325 324 324 324 323 322 326 329 329 328 330 329 329
312 311 310 312 311 310 311 314 314 319 326 326 330 329 330 327 324 323 323 320 318 317 316 317 318 320 321 323 325 325 324 323 321 319 318 317 316 315 314 314 314 315 316 317 321 324 327 327 328
313 311 309 308 309 311 309 313 322 324 324 324 325 327 329 327 324 321 321 319 316 314 314 312 312 312 313 314 315 315 314 313 311 310 310 310 310 309 309 310 311 311 312 313 314 315 318 321 324
314 310 313 308 313 314 311 313 315 325 325 323 323 326 328 327 324 322 321 319 317 314 313 310 310 309 308 309 309 308 308 307 307 307 309 309 310 310 311 311 311 311 311 312 312 313 314 314 315
311 311 306 307 308 311 311 310 309 320 322 323 322 325 327 327 325 320 323 322 318 314 312 309 308 307 307 307 306 306 306 307 308 308 308 309 309 309 309 310 309 309 309 309 309 309 310 311 312
312 310 308 310 311 307 307 309 310 316 319 323 322 324 326 326 326 324 324 321 318 314 311 309 307 306 306 306 306 306 306 307 307 308 308 308 308 308 309 309 309 309 308 308 308 307 307 307 308
Wind_Speed
10 8 3 1 4 4 4 5 1 1 4 3 5 3 3 2 4 4 11 25 28 34 33 30 26 24 22 20 17 16 16 18 18 19 18 17 16 14 12 11 10 10 10 10 10 10 9 8 9
11 9 5 3 4 2 5 3 6 5 3 4 1 5 2 2 3 6 21 23 27 32 33 30 28 25 23 20 18 15 16 17 18 18 18 17 15 14 13 13 12 12 11 11 11 11 11 12 13
13 10 4 4 3 5 5 4 6 2 1 5 3 4 3 2 4 20 17 22 27 31 31 30 29 26 24 21 18 15 15 17 19 19 18 16 15 15 15 14 13 11 11 12 13 13 15 16 17
11 6 4 4 6 6 5 3 2 2 6 6 5 3 3 3 8 10 23 21 26 29 29 29 28 27 24 21 18 15 16 18 18 19 19 18 17 16 16 15 13 12 12 13 15 16 17 16 16
15 4 3 1 5 5 5 11 3 2 2 5 2 2 3 6 3 11 22 22 27 29 27 27 27 27 25 21 17 14 17 17 18 19 19 18 17 18 17 16 13 11 11 15 17 17 16 14 13
5 4 3 5 4 4 6 19 11 6 8 10 5 6 3 8 6 13 21 25 28 26 27 26 26 28 25 22 18 15 17 18 19 19 19 18 17 17 17 15 13 12 12 15 17 17 14 11 9
7 4 5 2 3 4 6 10 6 9 15 13 6 7 3 11 12 19 23 27 26 25 25 25 26 27 25 22 19 16 17 18 19 18 18 18 17 16 16 13 14 13 13 16 17 16 13 10 8
5 4 3 5 4 5 2 3 5 15 20 12 20 8 6 20 22 24 26 25 25 24 24 25 27 28 26 23 20 16 17 18 18 17 17 17 16 15 15 15 16 15 14 16 16 14 12 9 6
7 3 5 6 7 4 1 5 11 12 15 21 21 4 10 27 28 26 28 27 25 25 24 24 26 28 26 24 21 18 17 18 18 17 16 15 15 14 15 16 17 16 15 14 15 13 11 10 7
6 5 8 7 4 3 3 2 14 1 15 10 13 10 22 30 30 28 29 28 27 27 26 26 26 28 27 26 23 20 18 21 19 18 17 15 14 14 15 17 17 17 15 14 14 13 11 9 8
7 6 5 5 12 9 6 15 9 11 4 15 29 22 34 33 31 28 25 25 23 23 26 25 26 28 28 28 25 23 20 21 21 19 18 16 15 15 16 17 18 17 16 15 14 13 12 10 10
3 11 7 10 21 8 2 12 18 12 6 23 29 24 37 35 31 29 26 27 27 24 23 24 26 27 28 27 26 24 22 22 23 21 19 18 16 16 15 16 17 17 16 15 15 14 12 12 11
5 4 15 27 24 18 12 13 9 9 8 19 24 34 36 33 29 28 26 25 26 25 22 21 24 25 26 26 26 25 23 23 23 22 20 20 18 16 16 16 16 16 16 16 15 14 14 14 14
12 22 18 12 19 12 7 3 1 3 18 24 30 34 32 31 30 29 28 26 25 25 22 20 22 22 23 24 24 25 24 22 23 23 20 19 19 18 17 16 16 16 16 16 15 15 16 16 17
4 4 4 10 8 6 10 4 4 15 24 29 28 28 25 26 29 29 28 27 25 24 23 21 22 21 20 21 21 21 21 21 22 23 21 20 19 19 18 17 17 16 14 14 15 16 17 19 19
1 2 0 3 8 5 11 5 2 18 30 28 25 24 25 25 25 26 27 28 27 26 24 24 22 19 16 17 18 19 20 20 20 21 22 21 19 19 19 19 17 16 15 14 14 15 15 18 21
4 2 4 6 7 5 3 3 3 14 25 24 26 25 24 21 21 23 26 27 27 26 27 25 23 20 10 14 15 14 18 21 21 22 22 23 21 20 21 21 21 21 21 18 18 18 18 18 23
4 2 1 4 1 6 4 1 4 9 19 24 26 25 23 20 17 18 21 23 24 20 21 25 23 20 17 11 17 19 19 14 14 19 20 21 23 23 23 24 25 25 23 23 23 24 21 19 22
4 2 3 6 5 4 7 6 4 6 14 17 23 26 23 20 17 15 15 17 17 15 16 23 25 23 24 18 18 22 21 17 20 18 18 21 22 24 24 24 25 27 30 30 27 27 25 24 22
3 3 6 4 3 6 8 6 6 7 6 7 13 20 17 20 17 15 14 14 15 14 16 20 24 26 27 26 22 18 21 23 21 23 23 24 24 26 26 27 28 30 34 34 34 33 28 25 23
5 5 4 3 6 8 11 5 4 4 6 10 12 17 18 18 18 15 13 13 13 12 12 18 23 25 27 26 23 23 22 22 25 26 25 26 26 27 26 26 27 28 29 31 34 38 38 27 23
3 6 2 6 6 5 2 3 3 1 3 4 11 19 19 17 16 15 14 14 13 13 13 13 17 20 20 22 21 20 21 21 20 20 21 24 24 26 25 26 27 23 23 24 27 32 34 33 37
6 4 3 3 7 6 5 5 1 2 5 7 14 22 21 19 16 15 13 13 14 13 12 13 14 14 15 24 23 22 21 20 19 18 19 19 18 18 20 20 20 20 17 16 19 22 24 30 35
9 5 6 6 3 3 1 5 3 6 12 9 13 24 25 21 18 14 13 13 14 14 13 12 12 11 11 12 14 14 14 15 13 16 16 14 13 13 13 15 16 16 17 18 17 21 22 24 29
6 6 4 5 5 4 5 3 7 7 5 6 18 23 27 24 22 20 18 15 14 13 13 12 11 9 9 9 9 10 9 9 9 9 8 7 7 7 9 10 11 12 12 13 14 14 16 17 22
1 5 6 4 4 4 2 3 4 4 10 12 21 31 27 26 23 22 19 16 13 10 9 7 6 6 7 7 8 7 5 5 4 5 5 5 6 8 9 10 12 12 13 13 13 13 15 18 21
2 3 3 8 4 3 2 4 8 3 5 3 18 29 33 29 27 24 19 14 11 10 8 5 4 5 6 7 8 8 7 7 6 6 5 5 6 7 9 10 10 12 13 15 16 15 15 17 20
5 5 4 3 4 3 4 3 5 5 6 3 10 23 30 29 27 22 18 15 12 11 10 7 6 5 5 6 7 7 7 6 6 5 4 4 5 5 6 8 9 11 12 13 15 17 18 17 18
3 2 7 6 4 6 3 5 6 8 9 12 16 24 34 34 29 26 22 18 16 15 13 10 9 8 7 7 6 6 5 4 4 3 3 4 5 7 8 10 12 13 15 15 16 17 18 20 20
2 4 5 5 5 2 4 6 5 6 9 14 18 26 35 37 31 29 26 23 21 18 15 12 11 9 7 7 7 7 6 4 4 3 2 4 5 7 9 12 14 15 16 17 18 19 20 19 20
Wind_Direction
205 196 165 45 42 57 273 266 279 303 297 242 138 189 174 117 152 206 156 163 167 169 173 172 170 168 168 166 163 164 165 164 166 167 166 163 159 161 162 162 165 161 156 152 155 157 154 147 133
183 174 143 96 89 41 265 244 224 212 334 3 308 114 28 56 150 156 152 158 170 171 173 173 173 172 170 168 167 169 170 169 169 168 165 163 162 161 157 152 152 152 151 147 142 140 137 129 122
168 157 142 104 130 194 232 226 240 220 233 357 30 59 37 354 167 152 160 160 173 174 173 173 175 175 173 170 168 170 171 167 169 171 170 167 162 155 150 147 146 148 154 150 140 134 129 121 118
156 142 81 110 212 258 229 338 249 180 243 271 15 52 50 330 158 163 162 164 173 175 174 174 177 176 175 173 170 169 167 162 163 164 164 162 156 152 147 143 141 138 145 147 137 135 127 121 121
154 131 81 258 242 261 257 266 301 239 187 211 152 61 50 123 184 172 169 170 171 173 174 174 177 177 176 174 172 169 167 164 163 161 161 158 155 151 147 143 139 136 139 144 142 140 134 129 121
124 123 89 230 233 242 262 258 242 238 264 271 173 108 150 215 199 173 168 166 172 172 173 175 177 178 177 175 174 173 170 165 162 162 160 159 156 154 150 150 149 147 142 147 150 148 147 143 130
132 103 204 226 253 259 230 254 213 238 230 225 217 129 217 196 181 164 165 167 174 174 172 174 175 178 178 178 177 176 174 170 169 167 165 165 163 158 160 158 158 152 148 152 159 161 159 152 149
168 105 167 223 191 263 225 291 270 254 247 232 195 181 194 183 167 164 171 173 176 175 175 176 177 179 180 180 180 179 178 176 176 174 172 169 168 164 161 160 160 155 153 156 167 171 172 171 181
161 82 218 204 171 230 198 9 324 310 185 178 176 152 195 165 163 166 175 178 179 178 180 180 182 183 184 185 184 184 183 181 180 179 179 178 179 177 171 166 165 164 161 166 170 186 188 190 205
150 167 216 205 205 225 293 256 313 186 143 126 151 172 169 169 169 171 179 179 182 182 183 186 186 188 188 191 192 190 189 186 185 184 183 184 183 182 180 176 174 174 174 180 183 196 207 208 212
191 211 212 231 232 299 309 316 348 150 191 177 168 165 170 172 174 178 181 182 171 179 184 189 192 194 196 197 196 197 195 192 189 188 187 186 186 185 183 184 184 184 188 193 201 204 212 218 220
181 224 223 241 261 286 325 314 325 205 331 197 183 183 176 177 179 182 185 187 181 181 186 189 195 198 201 203 204 204 201 198 196 194 193 193 192 192 190 191 193 194 200 204 213 222 221 229 232
221 242 228 244 257 271 275 271 274 279 280 178 171 174 178 179 183 187 192 192 189 189 187 192 195 201 205 207 210 211 209 205 201 200 199 200 200 199 198 199 202 204 209 213 223 235 235 232 235
215 225 240 246 248 254 208 258 276 54 162 158 167 172 180 184 190 193 199 201 199 198 196 199 200 204 209 209 214 215 214 210 207 207 207 208 208 208 207 208 210 212 216 221 231 240 249 244 236
225 224 255 229 232 215 174 312 221 142 154 150 168 174 183 194 201 204 209 211 210 208 207 206 210 206 214 215 216 217 217 215 213 213 214 216 217 218 218 218 218 219 224 233 238 244 246 250 245
127 74 68 272 154 190 149 242 235 150 153 144 153 173 192 201 211 218 219 226 223 223 218 215 216 207 217 224 222 222 221 219 219 219 221 224 225 225 225 223 225 225 233 243 246 245 253 253 251
1 198 200 312 187 117 106 195 186 166 151 137 156 170 179 186 202 216 225 229 234 227 225 222 220 208 198 222 213 225 228 226 225 224 224 229 232 235 236 235 238 239 236 242 245 249 256 261 250
203 194 312 258 102 72 82 115 85 145 152 142 149 159 160 165 173 198 213 222 230 231 224 224 225 211 205 213 212 210 219 219 230 228 233 236 237 240 244 244 242 244 247 249 248 248 248 259 254
139 127 250 242 230 131 178 130 82 94 116 130 148 154 148 149 150 163 180 199 212 221 213 214 219 218 213 217 221 220 231 228 226 235 239 237 234 235 240 241 244 248 251 253 256 253 249 250 249
204 249 275 293 7 102 124 63 65 66 85 114 144 149 146 152 155 160 175 184 203 212 206 213 218 217 222 225 234 234 237 251 256 252 251 246 239 241 246 255 256 257 257 258 254 254 253 253 255
203 200 236 179 88 62 102 43 358 18 87 129 153 169 163 165 169 174 173 180 183 194 198 205 215 219 224 231 232 239 242 249 253 249 249 249 252 251 254 257 258 258 263 263 271 268 261 261 265
198 189 129 181 97 152 59 189 257 221 111 156 167 178 177 176 177 181 177 176 181 177 177 187 204 214 221 222 220 223 235 243 242 239 250 261 255 261 264 267 271 275 272 274 264 262 260 254 253
199 123 164 98 92 107 359 83 199 138 225 219 190 187 189 188 188 176 181 183 182 184 184 184 192 200 208 217 222 231 234 239 240 245 252 262 267 272 274 271 268 260 255 258 269 276 264 253 255
143 105 54 46 82 68 223 123 270 184 207 205 185 194 190 185 183 180 166 156 158 163 178 186 191 197 202 213 225 235 243 246 252 265 268 265 263 263 267 275 281 283 288 286 271 266 270 270 259
66 61 14 16 16 201 336 57 228 231 230 201 190 190 191 186 182 178 171 164 160 156 159 166 173 184 196 208 213 221 227 227 239 240 245 248 260 273 286 292 297 300 295 290 289 285 272 267 267
159 135 145 166 184 260 354 220 252 222 276 253 218 199 191 190 186 185 180 172 169 172 175 176 179 188 192 200 210 216 226 232 216 212 227 254 277 289 293 295 299 303 302 299 294 281 281 272 266
189 76 140 103 18 68 258 297 320 350 331 214 178 184 192 193 192 193 184 181 187 195 190 193 203 198 202 204 207 211 224 242 263 272 277 275 277 284 294 298 300 300 300 300 301 297 286 278 274
107 141 90 20 131 212 279 281 230 275 249 200 184 189 193 196 197 191 194 193 203 203 200 197 202 215 223 223 221 227 234 241 253 270 289 305 313 317 320 323 325 323 318 310 304 300 298 291 283
144 146 57 111 122 163 196 257 218 217 213 204 208 202 198 198 197 197 203 208 218 208 203 203 211 221 219 226 236 237 231 221 232 248 276 307 325 334 333 331 331 330 327 323 317 310 303 297 293
61 133 129 124 206 126 147 266 15 315 264 224 212 207 209 206 203 208 209 211 217 212 210 217 218 212 208 218 225 225 235 240 249 262 298 320 324 321 324 324 322 320 320 321 320 318 314 310 307